QPF
0.00 0.01 0.00 0.00 0.01 0.01 0.01 0.01 0.01 0.01 0.01 0.01 0.01 0.01 0.01 0.01 0.00 0.01 0.05 0.08 0.08 0.05 0.03 0.04 0.06 0.06 0.06 0.07 0.05 0.03 0.02 0.01 0.01 0.02 0.02 0.02 0.03 0.04 0.06 0.05 0.05 0.06 0.04 0.04
0.01 0.01 0.00 0.00 0.01 0.02 0.01 0.02 0.01 0.01 0.01 0.01 0.01 0.01 0.00 0.00 0.00 0.02 0.04 0.04 0.05 0.07 0.08 0.06 0.08 0.09 0.09 0.07 0.04 0.02 0.01 0.01 0.01 0.01 0.01 0.01 0.02 0.02 0.03 0.02 0.02 0.03 0.05 0.08
0.01 0.01 0.00 0.01 0.01 0.03 0.02 0.02 0.01 0.02 0.02 0.02 0.01 0.01 0.00 0.00 0.00 0.01 0.01 0.02 0.02 0.03 0.07 0.06 0.08 0.09 0.08 0.05 0.03 0.02 0.01 0.02 0.02 0.02 0.02 0.02 0.01 0.02 0.02 0.03 0.03 0.03 0.03 0.04
0.01 0.01 0.00 0.00 0.02 0.05 0.07 0.05 0.03 0.03 0.03 0.02 0.01 0.01 0.01 0.01 0.00 0.01 0.01 0.01 0.01 0.01 0.05 0.07 0.05 0.06 0.05 0.03 0.02 0.03 0.03 0.03 0.03 0.03 0.03 0.02 0.02 0.02 0.02 0.02 0.02 0.02 0.03 0.03
0.01 0.01 0.00 0.00 0.01 0.02 0.05 0.10 0.05 0.04 0.03 0.02 0.01 0.02 0.02 0.02 0.01 0.01 0.01 0.01 0.02 0.02 0.02 0.05 0.08 0.11 0.08 0.03 0.03 0.04 0.04 0.04 0.03 0.03 0.03 0.03 0.03 0.02 0.02 0.02 0.02 0.02 0.02 0.02
0.00 0.00 0.00 0.00 0.00 0.01 0.02 0.02 0.02 0.03 0.03 0.03 0.03 0.03 0.02 0.01 0.01 0.01 0.01 0.01 0.01 0.01 0.01 0.01 0.02 0.05 0.10 0.10 0.05 0.03 0.04 0.05 0.04 0.04 0.05 0.03 0.02 0.02 0.02 0.02 0.02 0.02 0.02 0.01
0.00 0.00 0.00 0.00 0.00 0.00 0.02 0.04 0.02 0.02 0.02 0.01 0.01 0.01 0.01 0.01 0.00 0.00 0.00 0.01 0.01 0.01 0.01 0.01 0.02 0.02 0.03 0.04 0.04 0.03 0.04 0.05 0.05 0.05 0.05 0.04 0.04 0.04 0.03 0.03 0.04 0.03 0.02 0.02
0.00 0.00 0.00 0.00 0.00 0.01 0.01 0.01 0.02 0.02 0.02 0.01 0.01 0.00 0.00 0.01 0.00 0.00 0.00 0.01 0.01 0.01 0.01 0.02 0.02 0.02 0.02 0.03 0.04 0.05 0.04 0.04 0.04 0.04 0.04 0.04 0.06 0.08 0.07 0.05 0.04 0.04 0.03 0.02
0.01 0.02 0.02 0.01 0.01 0.01 0.02 0.02 0.02 0.01 0.01 0.01 0.01 0.00 0.00 0.00 0.01 0.01 0.01 0.01 0.01 0.01 0.01 0.02 0.02 0.02 0.02 0.03 0.03 0.03 0.03 0.04 0.04 0.05 0.05 0.07 0.10 0.12 0.11 0.09 0.08 0.06 0.05 0.02
0.02 0.02 0.02 0.02 0.02 0.02 0.03 0.02 0.01 0.01 0.00 0.00 0.01 0.01 0.01 0.01 0.00 0.00 0.00 0.00 0.01 0.01 0.01 0.01 0.01 0.02 0.02 0.02 0.03 0.02 0.02 0.03 0.04 0.04 0.05 0.06 0.08 0.10 0.11 0.11 0.09 0.09 0.08 0.05
0.02 0.02 0.02 0.02 0.02 0.02 0.02 0.02 0.01 0.01 0.01 0.01 0.01 0.01 0.01 0.01 0.00 0.00 0.00 0.00 0.01 0.01 0.01 0.01 0.02 0.02 0.02 0.02 0.02 0.02 0.02 0.03 0.02 0.03 0.03 0.03 0.03 0.04 0.06 0.07 0.06 0.05 0.05 0.05
0.02 0.01 0.01 0.01 0.01 0.01 0.01 0.02 0.01 0.01 0.01 0.01 0.01 0.01 0.01 0.01 0.01 0.00 0.00 0.00 0.00 0.01 0.01 0.01 0.02 0.03 0.03 0.02 0.02 0.03 0.03 0.03 0.03 0.03 0.03 0.03 0.03 0.03 0.03 0.03 0.03 0.03 0.04 0.04
0.01 0.01 0.01 0.01 0.01 0.01 0.01 0.02 0.01 0.01 0.01 0.01 0.02 0.01 0.01 0.02 0.01 0.01 0.01 0.01 0.01 0.01 0.02 0.02 0.03 0.03 0.03 0.03 0.03 0.04 0.05 0.04 0.04 0.03 0.02 0.02 0.02 0.02 0.02 0.01 0.01 0.01 0.02 0.02
0.01 0.01 0.01 0.02 0.02 0.02 0.02 0.02 0.02 0.02 0.02 0.03 0.03 0.01 0.02 0.02 0.02 0.02 0.02 0.02 0.03 0.03 0.03 0.04 0.04 0.04 0.04 0.04 0.04 0.04 0.04 0.05 0.05 0.03 0.03 0.02 0.02 0.02 0.02 0.02 0.01 0.01 0.02 0.02
0.01 0.01 0.01 0.03 0.03 0.03 0.03 0.06 0.10 0.08 0.04 0.07 0.09 0.05 0.04 0.03 0.03 0.02 0.02 0.03 0.03 0.03 0.03 0.04 0.04 0.04 0.06 0.06 0.04 0.03 0.03 0.04 0.04 0.03 0.03 0.03 0.03 0.03 0.02 0.03 0.02 0.02 0.02 0.02
0.01 0.01 0.02 0.03 0.02 0.02 0.03 0.09 0.12 0.07 0.05 0.09 0.09 0.07 0.04 0.04 0.04 0.03 0.03 0.04 0.04 0.03 0.04 0.04 0.04 0.04 0.06 0.07 0.05 0.04 0.04 0.04 0.04 0.03 0.03 0.03 0.03 0.03 0.03 0.03 0.03 0.03 0.03 0.04
0.01 0.02 0.02 0.01 0.01 0.02 0.02 0.04 0.09 0.09 0.06 0.06 0.05 0.04 0.04 0.04 0.04 0.04 0.03 0.05 0.05 0.04 0.04 0.05 0.05 0.06 0.07 0.06 0.05 0.05 0.05 0.04 0.05 0.05 0.04 0.03 0.04 0.04 0.04 0.03 0.03 0.02 0.02 0.02
0.02 0.03 0.02 0.02 0.02 0.02 0.03 0.07 0.09 0.07 0.04 0.03 0.03 0.03 0.03 0.04 0.04 0.03 0.03 0.04 0.05 0.05 0.06 0.06 0.06 0.06 0.05 0.06 0.06 0.05 0.06 0.07 0.06 0.06 0.05 0.04 0.04 0.04 0.04 0.03 0.02 0.01 0.01 0.01
0.04 0.04 0.03 0.03 0.03 0.03 0.04 0.04 0.05 0.04 0.02 0.01 0.03 0.03 0.03 0.03 0.04 0.04 0.05 0.04 0.05 0.06 0.07 0.07 0.07 0.06 0.05 0.05 0.06 0.07 0.07 0.09 0.08 0.07 0.07 0.06 0.06 0.05 0.04 0.02 0.02 0.01 0.01 0.02
0.03 0.04 0.04 0.05 0.04 0.04 0.03 0.04 0.03 0.03 0.02 0.01 0.03 0.05 0.06 0.05 0.04 0.04 0.04 0.05 0.05 0.06 0.08 0.09 0.08 0.07 0.06 0.05 0.06 0.07 0.08 0.10 0.11 0.08 0.06 0.06 0.05 0.05 0.04 0.03 0.02 0.02 0.02 0.02
0.03 0.05 0.06 0.06 0.04 0.04 0.03 0.04 0.03 0.03 0.02 0.02 0.04 0.03 0.04 0.07 0.06 0.05 0.05 0.05 0.08 0.12 0.10 0.09 0.09 0.09 0.08 0.09 0.08 0.05 0.06 0.07 0.08 0.07 0.06 0.05 0.04 0.04 0.04 0.03 0.03 0.04 0.04 0.03
0.05 0.04 0.04 0.03 0.04 0.04 0.04 0.04 0.04 0.03 0.03 0.04 0.05 0.03 0.02 0.02 0.03 0.03 0.04 0.04 0.08 0.12 0.12 0.11 0.09 0.09 0.08 0.09 0.09 0.06 0.05 0.04 0.05 0.05 0.05 0.04 0.03 0.03 0.04 0.04 0.05 0.05 0.04 0.04
0.06 0.05 0.03 0.03 0.04 0.05 0.05 0.05 0.06 0.06 0.05 0.05 0.07 0.05 0.04 0.04 0.03 0.03 0.05 0.07 0.09 0.13 0.13 0.12 0.09 0.08 0.08 0.08 0.09 0.08 0.05 0.03 0.04 0.05 0.05 0.05 0.05 0.04 0.05 0.06 0.05 0.04 0.05 0.05
0.08 0.07 0.04 0.04 0.05 0.06 0.07 0.08 0.09 0.10 0.10 0.08 0.08 0.09 0.08 0.06 0.05 0.04 0.07 0.08 0.08 0.09 0.10 0.09 0.06 0.05 0.04 0.05 0.08 0.08 0.04 0.03 0.03 0.05 0.06 0.06 0.05 0.04 0.04 0.04 0.03 0.02 0.02 0.03
0.18 0.18 0.10 0.05 0.05 0.05 0.08 0.13 0.14 0.12 0.13 0.13 0.10 0.07 0.08 0.07 0.05 0.04 0.05 0.07 0.06 0.06 0.06 0.04 0.03 0.03 0.02 0.03 0.05 0.05 0.03 0.02 0.03 0.04 0.05 0.06 0.06 0.04 0.03 0.02 0.02 0.03 0.03 0.03
0.22 0.18 0.10 0.06 0.06 0.05 0.06 0.08 0.08 0.08 0.11 0.12 0.11 0.08 0.07 0.05 0.05 0.04 0.05 0.05 0.04 0.04 0.04 0.04 0.03 0.02 0.02 0.01 0.03 0.04 0.03 0.03 0.03 0.03 0.04 0.05 0.04 0.03 0.02 0.02 0.02 0.03 0.04 0.04
0.19 0.16 0.09 0.08 0.08 0.07 0.07 0.07 0.07 0.06 0.07 0.07 0.07 0.05 0.03 0.03 0.03 0.03 0.04 0.04 0.03 0.02 0.02 0.02 0.02 0.01 0.01 0.01 0.02 0.02 0.02 0.03 0.03 0.03 0.04 0.03 0.02 0.02 0.01 0.01 0.01 0.01 0.01 0.01
MSLP
1009.46 1009.88 1010.42 1011.04 1011.69 1012.28 1012.75 1013.06 1013.17 1013.10 1012.88 1012.58 1012.27 1012.02 1011.88 1011.90 1012.06 1012.35 1012.73 1013.15 1013.57 1013.94 1014.26 1014.51 1014.71 1014.88 1015.04 1015.21 1015.39 1015.58 1015.78 1015.98 1016.15 1016.30 1016.42 1016.52 1016.61 1016.70 1016.80 1016.92 1017.04 1017.16 1017.25 1017.30
1009.93 1010.22 1010.57 1010.97 1011.38 1011.74 1012.02 1012.19 1012.23 1012.17 1012.03 1011.85 1011.69 1011.58 1011.57 1011.66 1011.85 1012.13 1012.47 1012.83 1013.19 1013.52 1013.82 1014.09 1014.33 1014.56 1014.79 1015.02 1015.26 1015.49 1015.71 1015.90 1016.06 1016.19 1016.30 1016.39 1016.47 1016.56 1016.66 1016.76 1016.86 1016.95 1016.99 1017.00
1010.57 1010.72 1010.90 1011.10 1011.30 1011.46 1011.57 1011.62 1011.60 1011.54 1011.44 1011.35 1011.28 1011.27 1011.33 1011.46 1011.65 1011.90 1012.17 1012.46 1012.76 1013.04 1013.32 1013.59 1013.87 1014.15 1014.44 1014.73 1015.02 1015.29 1015.53 1015.73 1015.89 1016.02 1016.13 1016.22 1016.30 1016.40 1016.49 1016.59 1016.68 1016.73 1016.74 1016.70
1011.30 1011.33 1011.36 1011.39 1011.41 1011.41 1011.37 1011.32 1011.24 1011.15 1011.07 1011.02 1011.01 1011.05 1011.15 1011.28 1011.46 1011.66 1011.87 1012.09 1012.32 1012.56 1012.82 1013.09 1013.39 1013.72 1014.05 1014.39 1014.72 1015.03 1015.29 1015.51 1015.68 1015.82 1015.93 1016.04 1016.14 1016.24 1016.34 1016.44 1016.51 1016.55 1016.53 1016.45
1011.98 1011.90 1011.81 1011.71 1011.59 1011.45 1011.30 1011.15 1011.01 1010.90 1010.82 1010.78 1010.80 1010.86 1010.97 1011.10 1011.26 1011.42 1011.59 1011.77 1011.95 1012.16 1012.40 1012.68 1012.99 1013.34 1013.72 1014.09 1014.45 1014.78 1015.07 1015.31 1015.49 1015.65 1015.78 1015.89 1016.01 1016.13 1016.24 1016.33 1016.40 1016.41 1016.37 1016.26
1012.47 1012.30 1012.12 1011.91 1011.69 1011.45 1011.21 1010.99 1010.80 1010.65 1010.56 1010.52 1010.56 1010.64 1010.76 1010.90 1011.05 1011.21 1011.36 1011.52 1011.69 1011.89 1012.13 1012.41 1012.74 1013.11 1013.50 1013.90 1014.28 1014.63 1014.93 1015.18 1015.39 1015.56 1015.71 1015.84 1015.97 1016.09 1016.20 1016.29 1016.34 1016.33 1016.26 1016.12
1012.63 1012.41 1012.16 1011.89 1011.60 1011.29 1010.99 1010.72 1010.48 1010.31 1010.21 1010.18 1010.23 1010.34 1010.49 1010.66 1010.84 1011.03 1011.20 1011.38 1011.57 1011.79 1012.04 1012.34 1012.68 1013.06 1013.46 1013.87 1014.26 1014.62 1014.93 1015.20 1015.42 1015.60 1015.76 1015.89 1016.02 1016.14 1016.23 1016.30 1016.32 1016.28 1016.17 1015.99
1012.44 1012.19 1011.91 1011.60 1011.28 1010.94 1010.60 1010.30 1010.05 1009.86 1009.77 1009.76 1009.84 1009.99 1010.19 1010.42 1010.66 1010.91 1011.14 1011.37 1011.61 1011.86 1012.14 1012.45 1012.80 1013.19 1013.59 1014.00 1014.39 1014.75 1015.07 1015.35 1015.57 1015.76 1015.92 1016.05 1016.15 1016.24 1016.30 1016.32 1016.29 1016.20 1016.05 1015.84
1011.93 1011.68 1011.40 1011.10 1010.77 1010.43 1010.09 1009.78 1009.53 1009.36 1009.28 1009.31 1009.43 1009.64 1009.91 1010.22 1010.54 1010.87 1011.19 1011.49 1011.78 1012.08 1012.39 1012.72 1013.07 1013.45 1013.84 1014.24 1014.63 1014.99 1015.31 1015.59 1015.82 1016.00 1016.14 1016.25 1016.32 1016.35 1016.35 1016.31 1016.21 1016.06 1015.86 1015.61
1011.24 1011.02 1010.77 1010.49 1010.19 1009.87 1009.56 1009.28 1009.06 1008.92 1008.87 1008.94 1009.12 1009.39 1009.73 1010.12 1010.53 1010.94 1011.34 1011.71 1012.05 1012.39 1012.71 1013.05 1013.39 1013.76 1014.13 1014.51 1014.89 1015.24 1015.56 1015.84 1016.06 1016.24 1016.36 1016.42 1016.44 1016.41 1016.33 1016.21 1016.03 1015.81 1015.55 1015.26
1010.53 1010.35 1010.16 1009.94 1009.70 1009.44 1009.18 1008.94 1008.76 1008.66 1008.66 1008.77 1009.00 1009.32 1009.72 1010.18 1010.65 1011.12 1011.57 1011.98 1012.35 1012.70 1013.02 1013.34 1013.66 1014.00 1014.34 1014.70 1015.06 1015.40 1015.72 1015.99 1016.21 1016.38 1016.47 1016.50 1016.46 1016.36 1016.20 1015.99 1015.73 1015.44 1015.13 1014.80
1009.93 1009.83 1009.71 1009.58 1009.42 1009.24 1009.06 1008.89 1008.77 1008.72 1008.76 1008.90 1009.16 1009.51 1009.93 1010.40 1010.90 1011.38 1011.84 1012.25 1012.61 1012.93 1013.22 1013.50 1013.78 1014.06 1014.37 1014.70 1015.04 1015.37 1015.68 1015.96 1016.19 1016.34 1016.42 1016.41 1016.33 1016.16 1015.93 1015.65 1015.33 1014.98 1014.63 1014.29
1009.54 1009.52 1009.50 1009.47 1009.42 1009.35 1009.26 1009.17 1009.11 1009.11 1009.18 1009.34 1009.59 1009.93 1010.33 1010.78 1011.24 1011.68 1012.09 1012.45 1012.76 1013.01 1013.24 1013.45 1013.67 1013.90 1014.16 1014.46 1014.78 1015.11 1015.43 1015.71 1015.95 1016.11 1016.19 1016.17 1016.05 1015.85 1015.58 1015.25 1014.89 1014.51 1014.15 1013.81
1009.35 1009.43 1009.52 1009.62 1009.69 1009.73 1009.74 1009.74 1009.75 1009.79 1009.87 1010.02 1010.24 1010.53 1010.87 1011.23 1011.61 1011.96 1012.27 1012.54 1012.75 1012.92 1013.06 1013.19 1013.33 1013.51 1013.73 1013.99 1014.30 1014.63 1014.96 1015.27 1015.53 1015.72 1015.82 1015.80 1015.69 1015.49 1015.20 1014.86 1014.50 1014.12 1013.77 1013.46
1009.30 1009.49 1009.70 1009.93 1010.13 1010.29 1010.41 1010.50 1010.57 1010.64 1010.72 1010.84 1011.00 1011.20 1011.44 1011.69 1011.93 1012.16 1012.35 1012.49 1012.59 1012.65 1012.70 1012.75 1012.82 1012.95 1013.13 1013.37 1013.67 1014.02 1014.37 1014.72 1015.02 1015.24 1015.38 1015.40 1015.33 1015.15 1014.89 1014.58 1014.24 1013.90 1013.59 1013.33
1009.32 1009.61 1009.94 1010.29 1010.62 1010.91 1011.13 1011.30 1011.43 1011.51 1011.58 1011.65 1011.73 1011.83 1011.94 1012.05 1012.16 1012.24 1012.29 1012.31 1012.30 1012.26 1012.23 1012.21 1012.23 1012.32 1012.48 1012.72 1013.03 1013.39 1013.78 1014.16 1014.51 1014.79 1014.98 1015.06 1015.04 1014.92 1014.72 1014.47 1014.19 1013.91 1013.65 1013.45
1009.32 1009.71 1010.15 1010.62 1011.06 1011.45 1011.77 1012.01 1012.17 1012.26 1012.31 1012.32 1012.31 1012.30 1012.28 1012.26 1012.23 1012.19 1012.12 1012.04 1011.94 1011.83 1011.74 1011.69 1011.69 1011.76 1011.92 1012.17 1012.50 1012.88 1013.30 1013.72 1014.12 1014.45 1014.70 1014.85 1014.90 1014.86 1014.74 1014.56 1014.35 1014.14 1013.96 1013.81
1009.32 1009.78 1010.31 1010.86 1011.39 1011.86 1012.24 1012.52 1012.70 1012.78 1012.79 1012.75 1012.66 1012.55 1012.43 1012.30 1012.16 1012.02 1011.88 1011.72 1011.58 1011.45 1011.34 1011.29 1011.30 1011.39 1011.57 1011.84 1012.19 1012.60 1013.05 1013.50 1013.93 1014.31 1014.61 1014.82 1014.94 1014.97 1014.93 1014.83 1014.70 1014.57 1014.44 1014.34
1009.34 1009.85 1010.43 1011.02 1011.60 1012.10 1012.50 1012.80 1012.97 1013.03 1013.01 1012.90 1012.75 1012.57 1012.37 1012.17 1011.97 1011.78 1011.60 1011.44 1011.30 1011.19 1011.12 1011.10 1011.16 1011.29 1011.51 1011.81 1012.18 1012.61 1013.07 1013.54 1013.99 1014.39 1014.72 1014.98 1015.15 1015.24 1015.26 1015.23 1015.17 1015.09 1015.02 1014.96
1009.50 1010.01 1010.59 1011.18 1011.74 1012.23 1012.62 1012.88 1013.02 1013.05 1012.98 1012.83 1012.62 1012.40 1012.16 1011.93 1011.72 1011.53 1011.37 1011.24 1011.15 1011.10 1011.10 1011.15 1011.28 1011.47 1011.73 1012.06 1012.46 1012.90 1013.36 1013.82 1014.26 1014.66 1015.00 1015.27 1015.46 1015.59 1015.65 1015.67 1015.65 1015.62 1015.58 1015.54
1009.86 1010.33 1010.86 1011.40 1011.90 1012.32 1012.64 1012.85 1012.93 1012.90 1012.78 1012.59 1012.36 1012.11 1011.87 1011.65 1011.46 1011.31 1011.21 1011.16 1011.15 1011.19 1011.28 1011.43 1011.63 1011.88 1012.19 1012.56 1012.96 1013.39 1013.84 1014.28 1014.69 1015.06 1015.38 1015.63 1015.83 1015.96 1016.04 1016.07 1016.08 1016.06 1016.03 1016.00
1010.46 1010.85 1011.29 1011.72 1012.11 1012.43 1012.65 1012.76 1012.76 1012.67 1012.50 1012.28 1012.04 1011.80 1011.58 1011.40 1011.26 1011.19 1011.17 1011.21 1011.30 1011.44 1011.63 1011.86 1012.14 1012.45 1012.81 1013.19 1013.59 1014.01 1014.42 1014.82 1015.19 1015.51 1015.79 1016.01 1016.18 1016.29 1016.36 1016.39 1016.39 1016.38 1016.34 1016.30
1011.26 1011.54 1011.85 1012.14 1012.40 1012.58 1012.67 1012.68 1012.59 1012.44 1012.23 1011.99 1011.76 1011.54 1011.36 1011.23 1011.17 1011.18 1011.25 1011.38 1011.56 1011.79 1012.07 1012.38 1012.72 1013.08 1013.46 1013.86 1014.25 1014.65 1015.02 1015.37 1015.69 1015.96 1016.18 1016.35 1016.47 1016.55 1016.59 1016.60 1016.59 1016.55 1016.50 1016.44
1012.13 1012.29 1012.46 1012.60 1012.70 1012.74 1012.71 1012.61 1012.45 1012.24 1012.01 1011.77 1011.56 1011.38 1011.25 1011.20 1011.21 1011.29 1011.44 1011.64 1011.90 1012.21 1012.54 1012.91 1013.29 1013.68 1014.07 1014.47 1014.85 1015.22 1015.56 1015.86 1016.13 1016.35 1016.52 1016.64 1016.71 1016.75 1016.75 1016.73 1016.68 1016.62 1016.55 1016.47
1012.93 1012.97 1012.99 1013.00 1012.96 1012.87 1012.73 1012.55 1012.33 1012.10 1011.87 1011.65 1011.48 1011.35 1011.29 1011.30 1011.38 1011.52 1011.73 1011.99 1012.30 1012.64 1013.01 1013.39 1013.79 1014.19 1014.58 1014.97 1015.34 1015.68 1015.98 1016.25 1016.48 1016.66 1016.78 1016.86 1016.90 1016.89 1016.86 1016.79 1016.72 1016.63 1016.53 1016.42
1013.47 1013.41 1013.33 1013.22 1013.07 1012.90 1012.69 1012.47 1012.23 1012.01 1011.81 1011.64 1011.52 1011.47 1011.47 1011.54 1011.67 1011.86 1012.11 1012.39 1012.72 1013.07 1013.43 1013.81 1014.20 1014.59 1014.97 1015.34 1015.69 1016.01 1016.29 1016.54 1016.74 1016.89 1016.99 1017.04 1017.04 1017.00 1016.93 1016.83 1016.72 1016.60 1016.47 1016.34
1013.66 1013.53 1013.38 1013.20 1013.00 1012.78 1012.56 1012.34 1012.13 1011.96 1011.82 1011.73 1011.69 1011.71 1011.78 1011.91 1012.09 1012.31 1012.56 1012.85 1013.16 1013.48 1013.82 1014.17 1014.53 1014.89 1015.24 1015.59 1015.92 1016.22 1016.50 1016.73 1016.91 1017.05 1017.13 1017.16 1017.14 1017.08 1016.98 1016.85 1016.71 1016.56 1016.40 1016.24
Thickness
5780 5790 5794 5793 5795 5796 5787 5779 5768 5773 5776 5789 5799 5804 5808 5811 5812 5812 5812 5813 5813 5810 5809 5808 5807 5805 5803 5801 5800 5797 5792 5788 5786 5784 5781 5778 5774 5771 5768 5764 5761 5758 5754 5750
5771 5785 5786 5782 5789 5791 5788 5786 5780 5778 5777 5795 5802 5804 5803 5804 5804 5803 5804 5806 5808 5807 5805 5803 5802 5800 5798 5797 5796 5793 5789 5785 5783 5779 5776 5773 5769 5766 5763 5759 5756 5753 5749 5746
5745 5766 5769 5757 5777 5782 5780 5782 5779 5769 5776 5789 5790 5792 5794 5797 5798 5798 5799 5801 5802 5802 5801 5801 5798 5796 5794 5792 5791 5787 5784 5781 5778 5774 5770 5768 5765 5761 5757 5754 5750 5747 5744 5740
5733 5743 5731 5756 5785 5787 5778 5777 5781 5781 5782 5787 5788 5790 5793 5795 5793 5793 5794 5794 5795 5795 5795 5795 5794 5793 5791 5787 5784 5780 5777 5774 5771 5767 5764 5761 5758 5755 5752 5749 5745 5742 5738 5735
5719 5719 5729 5757 5776 5779 5768 5761 5776 5776 5779 5782 5787 5783 5781 5789 5792 5791 5791 5790 5789 5790 5789 5788 5786 5785 5782 5779 5776 5772 5769 5767 5764 5761 5757 5754 5751 5748 5746 5742 5739 5736 5733 5729
5716 5715 5713 5741 5772 5782 5768 5746 5770 5773 5771 5773 5773 5756 5763 5783 5786 5786 5786 5785 5783 5783 5782 5779 5778 5777 5773 5769 5766 5764 5763 5761 5759 5755 5751 5747 5745 5743 5740 5737 5733 5730 5726 5723
5709 5708 5718 5748 5766 5768 5735 5735 5761 5766 5767 5767 5762 5762 5770 5777 5779 5779 5779 5779 5777 5774 5772 5770 5770 5767 5762 5759 5757 5757 5755 5753 5750 5748 5744 5741 5738 5736 5733 5730 5726 5722 5719 5716
5700 5697 5707 5746 5750 5739 5735 5749 5755 5758 5761 5760 5761 5764 5767 5769 5769 5770 5769 5769 5767 5764 5762 5762 5761 5757 5752 5749 5750 5749 5746 5743 5740 5738 5737 5735 5730 5727 5724 5721 5716 5712 5708 5706
5703 5705 5724 5737 5738 5742 5745 5744 5748 5750 5754 5754 5753 5753 5756 5757 5758 5758 5759 5757 5756 5754 5751 5751 5750 5748 5742 5741 5741 5739 5736 5733 5731 5729 5727 5725 5721 5718 5714 5711 5707 5703 5699 5695
5699 5708 5720 5729 5734 5738 5741 5741 5744 5747 5748 5748 5744 5744 5744 5745 5745 5746 5747 5747 5746 5744 5740 5739 5739 5737 5735 5733 5731 5728 5725 5722 5721 5719 5716 5714 5712 5709 5705 5701 5698 5694 5690 5685
5690 5701 5709 5717 5722 5728 5732 5736 5737 5739 5740 5739 5737 5735 5736 5734 5735 5736 5736 5736 5735 5732 5730 5728 5728 5726 5725 5723 5720 5716 5713 5711 5710 5708 5705 5703 5701 5699 5697 5695 5692 5687 5683 5679
5682 5695 5695 5703 5715 5721 5722 5724 5727 5728 5728 5730 5728 5727 5727 5726 5727 5726 5726 5725 5723 5721 5719 5718 5717 5715 5714 5712 5709 5705 5702 5700 5698 5696 5695 5693 5690 5688 5688 5686 5685 5682 5679 5674
5692 5698 5698 5702 5708 5714 5714 5717 5719 5719 5718 5717 5717 5718 5718 5717 5717 5716 5715 5714 5712 5710 5708 5707 5705 5703 5703 5701 5699 5695 5692 5690 5688 5687 5684 5682 5680 5677 5674 5675 5675 5673 5670 5667
5692 5692 5690 5694 5697 5703 5706 5708 5708 5707 5707 5707 5707 5707 5707 5706 5704 5704 5703 5703 5702 5700 5698 5696 5694 5692 5692 5691 5688 5685 5683 5681 5680 5678 5675 5673 5671 5668 5666 5664 5662 5660 5660 5657
5685 5687 5685 5688 5690 5693 5695 5696 5694 5694 5694 5694 5695 5694 5694 5694 5692 5692 5693 5694 5693 5690 5688 5685 5683 5682 5682 5681 5678 5676 5674 5672 5670 5670 5668 5665 5663 5660 5657 5655 5652 5650 5648 5646
5675 5678 5680 5679 5680 5682 5683 5684 5682 5682 5683 5683 5683 5683 5684 5684 5683 5683 5683 5683 5680 5678 5677 5676 5673 5673 5673 5672 5669 5667 5665 5664 5663 5661 5659 5656 5654 5651 5648 5645 5643 5641 5638 5635
5663 5665 5668 5670 5671 5672 5674 5675 5674 5673 5674 5673 5673 5674 5674 5673 5671 5671 5671 5672 5670 5669 5668 5666 5665 5665 5664 5662 5660 5658 5656 5655 5654 5652 5650 5648 5645 5643 5640 5636 5634 5631 5629 5628
5662 5662 5664 5664 5664 5664 5665 5667 5667 5667 5666 5667 5666 5665 5664 5662 5660 5660 5660 5660 5659 5658 5658 5658 5657 5656 5654 5653 5651 5649 5648 5646 5644 5642 5641 5639 5636 5634 5630 5628 5626 5623 5621 5619
5656 5657 5658 5658 5658 5658 5658 5659 5658 5658 5659 5657 5656 5655 5654 5653 5652 5651 5651 5650 5649 5647 5647 5648 5648 5647 5645 5644 5642 5641 5639 5637 5635 5634 5632 5630 5627 5624 5621 5619 5617 5614 5612 5610
5650 5651 5651 5650 5651 5650 5649 5650 5650 5649 5649 5649 5647 5646 5644 5644 5643 5642 5641 5640 5640 5639 5639 5639 5639 5638 5636 5635 5635 5632 5631 5628 5626 5624 5623 5620 5617 5615 5611 5609 5607 5605 5603 5600
5639 5640 5641 5641 5642 5642 5642 5643 5642 5641 5641 5641 5639 5638 5637 5636 5636 5635 5633 5631 5632 5632 5631 5631 5631 5629 5628 5626 5626 5624 5621 5620 5618 5616 5614 5611 5608 5606 5602 5600 5598 5596 5593 5591
5628 5629 5631 5633 5633 5633 5634 5635 5635 5634 5633 5632 5632 5631 5629 5628 5628 5627 5627 5625 5625 5625 5623 5623 5622 5621 5619 5619 5617 5615 5613 5611 5608 5607 5605 5602 5599 5596 5594 5591 5588 5586 5584 5582
5619 5621 5622 5624 5624 5625 5626 5627 5627 5626 5625 5625 5625 5624 5623 5622 5621 5620 5618 5618 5618 5617 5616 5615 5614 5612 5611 5610 5608 5606 5604 5602 5600 5597 5595 5593 5590 5587 5584 5581 5579 5577 5575 5573
5613 5615 5617 5618 5618 5618 5617 5618 5619 5619 5620 5620 5619 5619 5617 5615 5614 5614 5613 5612 5610 5609 5608 5606 5605 5604 5603 5602 5600 5597 5595 5593 5591 5589 5586 5584 5581 5578 5576 5573 5570 5568 5566 5565
5608 5610 5611 5611 5611 5610 5611 5611 5611 5612 5613 5613 5612 5611 5610 5610 5608 5606 5606 5605 5603 5602 5600 5599 5597 5596 5595 5594 5592 5590 5587 5585 5583 5581 5578 5575 5572 5569 5567 5565 5562 5560 5558 5555
5603 5604 5605 5605 5605 5605 5605 5604 5604 5604 5605 5604 5604 5605 5605 5604 5602 5601 5599 5599 5597 5595 5593 5592 5590 5589 5587 5586 5584 5582 5580 5578 5576 5573 5570 5567 5565 5562 5560 5557 5555 5552 5549 5547
5599 5600 5599 5598 5599 5600 5600 5600 5599 5599 5599 5599 5598 5598 5598 5598 5597 5596 5594 5593 5591 5589 5587 5586 5584 5583 5581 5579 5577 5575 5573 5570 5567 5564 5562 5559 5557 5554 5552 5550 5547 5545 5542 5540